Temperature
29 30 30 30 30 29 29 30 30 30 29 29 28 27 25 24 23 22 21 21 20 20 19 19 18 18 18 18 17 17 17 16 16 16 16 16 16 16 16 16 16 16 15 15
28 29 29 29 29 29 29 29 29 29 29 29 27 26 24 23 23 22 21 20 20 19 19 18 18 18 17 17 17 17 16 16 16 16 16 16 15 15 15 15 15 15 15 15
28 29 28 28 29 29 29 29 29 29 29 27 26 25 24 23 22 22 21 20 19 19 18 18 18 17 17 17 17 16 16 16 16 16 15 15 15 15 15 15 15 15 14 14
28 27 26 28 28 28 28 28 28 28 27 27 26 24 23 22 21 21 20 20 19 19 18 18 17 17 17 17 16 16 16 16 16 15 15 15 15 15 15 14 14 14 14 14
27 27 27 27 27 27 27 27 27 27 26 25 24 24 23 21 20 20 20 19 19 18 18 17 17 17 17 16 16 16 16 15 15 15 15 15 15 15 14 14 14 14 14 14
26 26 26 27 27 26 26 26 26 25 25 24 24 25 24 21 20 19 19 18 18 18 17 17 17 16 16 16 16 15 15 15 15 15 15 14 14 14 14 14 14 14 13 13
25 26 27 26 25 25 25 25 24 24 24 23 23 24 21 20 19 19 18 18 17 17 17 16 16 16 16 16 16 15 15 15 15 15 14 14 14 14 14 14 13 13 13 13
25 25 26 24 25 25 23 22 22 22 22 22 21 20 20 19 18 18 17 17 17 17 16 16 16 16 16 15 15 15 15 14 14 14 14 14 14 14 13 13 13 13 13 13
25 24 23 22 23 21 21 21 21 21 21 20 20 19 19 18 17 17 17 16 16 16 16 16 16 15 15 15 15 15 15 14 14 14 14 13 13 13 13 13 13 13 13 13
23 23 22 21 21 20 20 20 20 20 19 19 19 19 18 17 17 16 16 16 16 16 15 15 15 15 15 15 15 14 14 14 14 13 13 13 13 13 13 13 12 13 13 13
22 22 21 21 20 20 19 19 19 19 19 19 18 18 17 16 16 16 16 15 15 15 15 15 15 15 14 14 14 14 13 13 13 13 13 13 12 12 12 12 12 12 12 12
22 21 21 20 19 19 18 18 18 18 18 17 17 17 16 16 15 15 15 15 15 15 14 14 14 14 14 14 14 13 13 13 13 13 12 12 12 12 12 12 12 12 12 11
20 19 19 18 18 18 18 17 17 17 17 16 16 16 15 15 15 15 14 14 14 14 14 14 13 13 13 13 13 13 12 12 12 12 12 12 12 12 12 12 11 11 11 11
17 17 18 17 17 17 17 17 16 16 16 16 15 15 15 15 14 14 14 14 14 13 13 13 13 13 13 12 12 12 12 12 12 12 12 12 11 11 11 11 11 11 11 11
17 17 17 17 16 16 16 16 16 16 15 15 15 14 14 14 14 13 13 13 13 13 13 12 12 12 12 12 12 11 11 11 11 11 11 11 11 11 11 11 11 11 11 11
16 16 16 16 16 16 15 16 16 15 15 14 14 14 13 13 13 13 13 12 12 12 12 12 12 12 11 11 11 11 11 11 10 10 11 11 11 11 11 10 10 10 10 10
16 16 16 16 16 15 15 15 15 15 14 14 14 13 13 13 12 12 12 12 12 12 12 11 11 11 11 11 11 11 11 10 10 10 10 10 10 10 10 10 10 10 10 10
15 15 15 15 15 15 15 15 14 14 14 13 13 13 12 12 12 12 11 11 11 11 11 11 11 11 11 11 10 10 10 10 10 10 10 10 9 9 9 9 9 9 9 9
15 15 15 15 15 15 14 14 14 14 13 13 13 12 12 12 11 11 11 11 11 11 11 11 11 11 10 10 10 10 10 10 10 9 9 9 9 9 9 9 9 9 9 9
14 14 14 14 14 14 14 14 13 13 13 13 12 12 12 11 11 11 11 11 11 11 10 10 10 10 10 10 10 10 10 9 9 9 9 9 9 9 9 9 9 9 8 9
14 14 14 14 13 13 13 13 13 13 12 12 12 12 11 11 11 11 11 11 11 10 10 10 10 10 10 10 10 9 9 9 9 9 9 9 9 8 8 8 8 8 8 8
13 13 13 13 13 13 13 12 12 12 12 12 12 11 11 11 11 10 10 10 10 10 10 10 10 10 10 9 9 9 9 9 9 9 8 8 8 8 8 8 8 8 8 8
12 12 13 12 12 12 12 12 12 12 12 11 11 11 11 11 11 11 11 10 10 10 10 10 10 10 9 9 9 9 9 9 8 8 8 8 8 8 8 8 8 8 8 8
12 12 12 12 12 12 12 12 11 11 11 11 11 11 10 11 11 11 10 10 10 9 9 10 9 9 9 9 9 9 8 8 8 8 8 8 8 8 8 8 8 7 7 7
11 11 11 11 11 11 11 11 11 11 11 11 11 11 11 10 10 10 10 9 9 9 9 9 9 9 9 9 9 8 8 8 8 8 8 8 7 7 7 7 7 7 7 7
11 11 11 11 11 11 11 11 11 11 11 11 11 10 10 10 10 9 9 9 9 9 9 9 9 9 9 9 8 8 8 8 8 8 7 7 7 7 7 7 7 7 7 7
11 11 11 11 11 11 11 11 11 11 11 11 10 10 10 10 9 9 9 9 9 9 9 8 8 8 8 8 8 8 8 8 7 7 7 7 7 7 7 7 6 7 6 6
Wind_Speed
9 7 8 10 11 12 13 13 12 9 9 7 4 3 4 5 6 7 7 7 7 6 6 5 4 4 3 3 3 3 3 2 2 2 2 2 2 2 1 1 1 1 1 1
10 9 11 12 11 12 13 13 13 11 9 4 3 3 4 6 7 7 7 7 7 6 6 5 5 4 4 3 3 3 2 2 2 2 2 2 2 2 2 2 1 1 2 2
11 10 11 15 13 13 12 12 12 12 7 3 4 4 4 5 6 7 7 7 7 6 6 5 5 5 5 4 4 3 3 2 3 3 3 3 3 3 2 2 2 2 3 2
10 9 14 7 3 7 10 9 9 8 5 4 4 3 4 5 6 6 6 6 6 6 5 5 5 5 4 4 4 3 3 3 3 3 3 3 3 3 3 3 3 3 3 3
10 13 12 6 4 5 7 8 3 4 4 4 4 4 4 4 4 4 5 5 5 5 5 4 4 5 4 4 4 3 3 3 3 4 4 4 4 4 3 4 4 4 4 4
10 12 12 5 2 2 5 7 1 2 4 5 6 6 3 4 3 3 4 4 4 5 5 4 4 4 4 3 3 3 3 3 3 4 4 4 4 4 4 4 5 5 4 4
12 13 8 1 2 4 7 2 1 2 4 5 4 1 3 4 3 3 3 4 5 4 4 4 4 4 3 3 3 3 3 3 3 3 4 4 4 4 4 5 5 4 4 4
10 12 8 3 3 3 2 3 1 1 2 3 2 2 3 3 3 3 3 4 4 4 4 3 3 4 3 2 2 2 3 3 3 3 3 3 4 4 4 5 5 5 5 5
5 3 3 2 1 1 1 1 1 1 1 2 2 2 2 2 3 3 3 3 3 4 4 3 3 3 2 1 1 2 2 2 3 3 3 4 4 5 5 5 5 5 5 5
4 2 0 0 0 0 1 1 1 0 1 2 2 2 2 2 2 2 2 2 3 4 4 3 2 2 1 1 1 1 2 2 3 3 3 3 4 4 5 5 5 5 5 5
5 3 2 2 1 1 1 1 1 0 1 1 2 3 3 2 1 1 1 1 2 3 3 2 2 2 1 1 0 1 1 2 2 2 2 3 4 4 5 5 5 6 6 5
5 3 3 2 1 2 1 1 1 1 1 1 1 2 3 2 2 1 1 1 1 2 2 1 1 1 1 0 0 1 2 2 2 2 2 3 3 3 2 4 3 5 6 6
2 2 2 2 2 2 1 1 1 1 1 1 1 2 2 2 2 1 1 1 1 1 1 1 1 1 0 0 1 1 2 2 3 2 2 3 3 3 3 2 2 4 5 5
1 1 1 2 1 0 1 2 2 2 2 2 2 3 3 3 2 1 1 0 0 0 1 1 1 0 0 1 1 2 3 2 3 2 3 3 3 3 4 4 4 3 3 5
2 2 2 2 2 2 3 3 4 3 3 3 3 3 3 3 2 1 0 1 1 0 0 0 0 1 1 1 2 3 3 2 2 2 3 3 3 3 3 4 4 4 4 2
2 1 3 3 3 3 3 3 3 3 3 3 3 4 3 3 2 2 1 1 1 2 2 1 1 1 1 2 2 3 2 1 2 3 3 3 3 3 3 3 4 4 4 4
3 3 4 4 4 4 3 3 3 3 3 3 3 3 3 3 2 2 2 2 2 2 2 2 2 2 2 2 2 2 2 1 1 2 2 3 3 3 3 4 4 4 4 4
3 4 4 4 3 3 3 3 3 3 3 3 4 3 3 2 1 1 2 2 3 3 3 3 3 2 2 2 2 2 2 2 2 2 3 3 3 4 4 4 5 5 5 4
3 3 4 4 3 3 3 3 3 3 3 3 4 3 2 1 1 1 1 1 1 2 3 3 2 2 2 2 2 2 2 2 3 3 3 3 4 4 4 4 5 5 5 5
3 4 4 4 4 3 3 3 4 3 3 4 4 3 2 1 1 1 0 0 1 2 2 3 2 2 2 1 2 2 2 3 3 3 3 4 4 4 4 5 5 5 5 5
2 4 5 4 4 4 4 4 4 4 3 3 3 3 2 1 1 0 0 1 1 2 2 1 2 2 2 2 3 2 3 3 4 4 4 4 4 4 5 5 5 4 5 5
2 3 4 4 4 4 3 3 3 3 3 3 3 3 2 2 1 0 0 1 1 1 2 2 2 3 4 5 3 3 3 3 3 4 4 4 4 5 5 5 5 5 5 5
3 2 3 4 4 4 4 3 3 3 3 3 2 2 1 1 1 1 1 1 1 1 2 2 3 3 5 4 3 3 3 3 4 4 4 4 4 4 5 5 5 5 5 5
3 3 3 3 4 4 3 2 2 2 2 2 2 2 1 1 1 1 1 1 1 2 2 2 2 4 6 3 2 3 3 3 4 4 4 4 4 4 5 5 5 5 5 5
3 3 3 3 3 2 2 2 2 2 2 2 2 2 1 1 1 1 1 1 0 2 1 1 3 5 4 3 3 3 3 4 4 5 4 4 5 4 4 5 5 5 5 5
2 2 2 1 1 1 1 1 1 1 2 2 1 1 0 0 0 0 0 0 1 2 2 2 3 3 3 3 3 4 4 4 4 4 4 5 5 5 5 5 6 5 5 4
3 2 2 1 1 1 1 1 1 1 1 2 1 0 0 0 0 0 1 1 1 2 2 2 3 3 3 4 3 4 4 4 4 4 4 5 5 5 4 4 4 4 4 4
Wind_Direction
257 261 252 242 235 229 241 256 266 268 264 260 226 201 177 176 169 167 166 169 167 170 171 177 180 182 184 185 188 192 201 211 212 220 219 234 238 232 230 240 240 242 257 259
245 239 243 244 244 239 240 250 255 260 264 254 191 179 174 180 178 177 178 177 175 174 175 184 190 193 192 195 196 195 202 213 215 218 223 228 231 225 226 239 252 239 248 255
249 240 243 242 243 246 246 248 255 260 261 198 194 199 196 188 188 186 182 180 181 185 188 192 196 196 195 194 196 197 203 214 217 221 225 230 234 231 232 237 243 245 246 247
251 242 246 253 260 256 256 255 260 262 250 221 207 194 195 189 183 182 180 180 182 186 187 186 186 188 188 185 190 197 209 221 224 224 228 234 236 235 236 237 240 244 246 246
246 244 244 232 222 235 243 248 256 253 225 199 168 176 183 171 173 178 186 184 180 181 177 171 176 179 182 187 189 202 217 229 234 233 235 236 238 240 241 239 239 240 242 243
242 250 251 242 167 220 245 236 211 223 204 194 192 217 176 150 167 176 175 174 175 173 168 164 166 167 175 182 194 215 230 238 240 240 241 241 240 244 245 241 241 245 246 250
241 247 248 97 137 208 235 266 59 220 208 200 208 288 106 138 157 164 165 163 163 162 162 163 167 171 179 190 209 227 234 240 241 246 247 244 246 248 248 248 250 251 252 252
238 244 241 90 169 225 344 25 27 249 211 192 167 123 117 123 140 152 152 154 157 160 155 155 163 170 173 195 225 228 232 238 248 254 258 252 246 250 250 250 248 246 246 251
253 262 61 91 24 25 359 352 339 304 232 182 176 164 147 142 139 145 146 146 155 156 154 155 160 163 174 199 235 233 238 248 260 267 267 262 249 245 244 241 249 253 251 252
240 237 205 130 27 356 353 347 330 275 201 181 180 171 166 155 148 149 146 150 164 161 155 152 153 156 170 183 243 234 243 256 259 263 266 263 260 253 253 253 255 257 256 258
233 230 227 221 247 318 342 353 18 98 181 181 169 175 173 165 157 160 158 168 174 167 158 155 140 135 141 157 223 256 266 272 270 261 265 270 263 263 260 262 261 266 267 265
245 221 248 240 288 289 273 263 249 170 182 196 179 180 171 159 154 162 159 157 154 159 155 156 142 124 104 110 204 265 270 279 283 280 272 268 273 278 256 259 255 252 263 270
275 269 281 250 257 273 244 232 204 172 172 174 172 162 147 135 133 130 133 146 159 165 173 174 163 134 118 253 239 251 271 281 282 285 286 289 284 283 287 274 242 239 236 244
265 253 225 207 216 194 144 125 110 108 112 118 129 130 126 123 129 141 163 254 237 215 195 182 165 100 351 284 272 270 272 278 278 279 288 294 295 293 290 290 289 285 239 207
232 252 217 185 175 151 145 138 126 117 107 102 112 116 117 119 125 117 31 4 28 30 18 166 12 355 347 306 281 269 271 280 293 300 294 294 293 290 290 292 292 294 298 262
236 216 172 170 169 163 164 160 144 134 122 112 108 109 112 111 98 73 46 40 40 24 5 346 330 330 333 319 302 284 286 333 301 292 294 294 294 297 299 298 293 291 293 298
201 192 182 178 174 172 174 174 163 155 140 129 121 119 116 107 89 69 52 39 29 19 359 344 333 339 324 309 302 308 315 310 275 278 292 303 302 301 301 297 294 291 289 296
219 217 213 206 197 187 178 173 165 154 143 134 131 127 121 113 96 76 56 42 33 13 359 353 346 337 331 331 327 321 306 298 301 306 309 308 305 299 294 291 292 294 297 288
213 216 215 212 211 196 179 170 161 148 142 144 143 136 131 120 104 90 81 66 35 2 353 351 346 313 331 352 332 281 288 297 300 301 301 299 290 294 297 299 298 297 299 300
200 195 196 195 185 176 163 157 154 148 150 152 149 144 138 129 124 123 100 26 358 355 353 339 321 334 335 346 320 303 301 298 299 299 298 298 302 303 301 299 300 301 300 296
186 181 180 175 166 160 155 156 158 154 153 155 152 148 140 132 140 173 246 338 33 20 341 304 300 329 333 331 287 297 301 303 303 304 303 302 304 304 305 308 308 306 303 301
162 161 159 156 155 151 148 149 148 146 146 148 148 143 138 145 162 162 342 316 353 356 306 306 328 20 343 305 297 309 308 305 305 304 302 302 301 301 303 306 306 308 308 309
129 129 141 147 148 143 140 142 147 153 157 157 152 154 173 250 271 274 318 356 320 323 314 343 12 356 303 289 307 309 307 308 305 300 298 299 299 299 300 300 302 305 307 309
116 113 109 118 127 134 135 134 138 144 150 151 151 161 202 219 245 313 5 77 348 306 327 8 321 294 279 283 296 301 303 305 302 302 305 305 303 303 303 303 303 303 303 306
112 116 117 125 135 132 128 135 147 159 170 160 164 180 220 274 296 358 6 31 332 275 295 281 257 274 283 309 302 299 296 302 308 308 304 303 304 303 302 303 304 305 306 307
122 129 124 140 121 142 164 167 165 180 185 174 179 178 165 133 130 151 220 251 289 290 297 296 291 279 300 302 300 302 305 304 294 291 299 298 298 299 298 300 301 299 298 302
143 141 146 141 148 158 163 160 157 182 183 170 168 206 198 148 334 339 306 304 299 298 305 307 309 312 307 299 298 303 307 308 307 305 303 301 301 300 299 297 297 297 299 306
Height
1474 1472 1473 1474 1476 1477 1479 1478 1481 1479 1479 1479 1481 1485 1490 1493 1496 1499 1501 1503 1505 1507 1508 1510 1511 1512 1512 1513 1514 1514 1515 1515 1515 1516 1514 1515 1515 1515 1515 1515 1515 1514 1514 1513
1479 1474 1474 1476 1474 1474 1476 1475 1475 1476 1478 1477 1482 1486 1490 1492 1494 1497 1499 1501 1503 1505 1507 1508 1509 1510 1510 1511 1511 1512 1513 1513 1514 1513 1513 1513 1513 1513 1513 1513 1512 1512 1511 1511
1479 1473 1476 1480 1472 1472 1472 1470 1472 1475 1475 1478 1482 1486 1489 1491 1493 1495 1497 1499 1501 1503 1504 1505 1507 1507 1508 1509 1509 1510 1510 1511 1511 1511 1511 1511 1512 1512 1511 1510 1510 1509 1509 1509
1477 1481 1492 1473 1468 1469 1470 1470 1470 1472 1475 1478 1482 1486 1488 1490 1491 1493 1495 1497 1499 1501 1503 1504 1505 1506 1506 1507 1507 1508 1508 1508 1509 1509 1509 1509 1509 1509 1508 1508 1508 1507 1507 1506
1478 1480 1475 1471 1469 1471 1472 1473 1473 1474 1476 1480 1483 1485 1487 1489 1491 1492 1494 1496 1497 1499 1500 1501 1502 1503 1504 1504 1505 1505 1506 1506 1506 1506 1506 1506 1506 1506 1506 1505 1505 1505 1504 1504
1478 1483 1481 1470 1468 1472 1474 1475 1474 1475 1477 1480 1482 1480 1483 1488 1489 1491 1493 1494 1496 1497 1498 1499 1500 1500 1501 1501 1502 1502 1503 1503 1503 1503 1503 1503 1503 1503 1502 1502 1502 1502 1501 1501
1476 1477 1469 1469 1471 1473 1479 1477 1477 1477 1479 1480 1481 1481 1485 1486 1488 1490 1491 1492 1493 1495 1496 1497 1497 1498 1498 1498 1499 1499 1500 1500 1500 1500 1500 1500 1499 1499 1499 1499 1499 1499 1498 1498
1473 1476 1474 1472 1472 1474 1476 1478 1478 1479 1480 1481 1482 1484 1485 1486 1487 1489 1490 1491 1491 1492 1493 1494 1495 1495 1495 1496 1496 1497 1497 1497 1497 1497 1496 1496 1495 1495 1495 1495 1495 1495 1494 1494
1469 1472 1474 1474 1475 1478 1479 1479 1479 1480 1480 1481 1482 1484 1485 1486 1487 1487 1488 1489 1490 1490 1491 1492 1492 1493 1493 1493 1494 1494 1493 1493 1493 1493 1492 1492 1492 1491 1491 1491 1492 1491 1491 1491
1472 1471 1474 1476 1477 1478 1479 1479 1480 1480 1481 1481 1482 1483 1484 1485 1485 1486 1487 1487 1488 1489 1489 1490 1490 1490 1491 1491 1491 1491 1491 1490 1490 1490 1489 1488 1488 1488 1488 1488 1488 1488 1488 1487
1473 1474 1476 1477 1478 1478 1479 1479 1479 1479 1480 1481 1481 1482 1483 1483 1484 1485 1485 1486 1487 1487 1487 1487 1488 1488 1489 1489 1489 1488 1488 1488 1487 1487 1486 1485 1485 1484 1484 1484 1485 1484 1484 1484
1470 1474 1474 1476 1477 1478 1478 1478 1478 1479 1479 1480 1480 1481 1481 1482 1483 1483 1484 1484 1485 1485 1485 1486 1486 1486 1486 1486 1486 1486 1486 1486 1485 1485 1484 1483 1482 1481 1480 1481 1480 1480 1480 1479
1473 1474 1475 1476 1477 1477 1477 1477 1478 1478 1478 1478 1479 1479 1480 1480 1481 1482 1482 1483 1483 1484 1484 1484 1484 1484 1484 1484 1484 1483 1483 1483 1483 1482 1481 1481 1479 1478 1477 1477 1476 1476 1475 1475
1474 1475 1475 1475 1476 1476 1477 1477 1477 1477 1478 1478 1478 1478 1479 1480 1481 1481 1482 1482 1482 1482 1483 1483 1483 1483 1482 1482 1482 1481 1481 1481 1480 1479 1479 1478 1477 1476 1475 1474 1474 1472 1472 1471
1474 1474 1474 1475 1475 1475 1476 1476 1476 1476 1477 1477 1477 1477 1478 1479 1480 1480 1481 1481 1481 1481 1481 1481 1481 1481 1481 1480 1479 1479 1479 1479 1478 1477 1477 1476 1475 1474 1473 1472 1471 1470 1469 1468
1473 1473 1473 1474 1475 1475 1475 1476 1476 1476 1476 1477 1477 1477 1478 1479 1479 1480 1480 1480 1479 1480 1480 1480 1479 1479 1479 1478 1478 1478 1477 1476 1475 1475 1474 1474 1472 1471 1470 1469 1468 1468 1467 1466
1472 1472 1472 1473 1474 1474 1475 1475 1476 1476 1477 1477 1477 1478 1478 1479 1479 1479 1479 1479 1479 1479 1479 1478 1478 1478 1477 1477 1476 1476 1475 1474 1473 1473 1472 1471 1470 1469 1468 1467 1466 1465 1464 1463
1471 1471 1471 1472 1473 1474 1474 1475 1476 1476 1476 1477 1477 1477 1478 1478 1479 1478 1478 1478 1478 1478 1478 1477 1477 1476 1476 1475 1474 1474 1473 1473 1472 1471 1470 1469 1467 1466 1465 1464 1463 1462 1460 1459
1468 1469 1470 1471 1472 1472 1473 1474 1475 1475 1476 1476 1477 1477 1478 1478 1478 1478 1477 1477 1476 1476 1476 1476 1475 1475 1475 1474 1473 1472 1472 1471 1470 1469 1468 1466 1465 1464 1463 1462 1460 1459 1458 1456
1467 1467 1468 1470 1471 1471 1472 1473 1474 1474 1475 1476 1476 1477 1477 1477 1477 1477 1477 1477 1477 1476 1476 1475 1475 1474 1473 1472 1471 1471 1470 1469 1468 1467 1466 1465 1463 1462 1461 1460 1458 1457 1455 1454
1465 1465 1467 1468 1469 1470 1471 1472 1473 1473 1474 1475 1475 1476 1476 1476 1476 1476 1476 1476 1476 1475 1475 1475 1474 1473 1472 1471 1470 1470 1469 1467 1467 1465 1464 1463 1461 1460 1459 1458 1456 1454 1453 1451
1464 1465 1466 1467 1468 1469 1470 1471 1472 1472 1473 1474 1475 1475 1475 1475 1476 1476 1475 1475 1475 1474 1474 1474 1473 1472 1470 1470 1469 1468 1467 1466 1465 1464 1462 1461 1460 1458 1457 1455 1454 1452 1451 1449
1463 1464 1465 1466 1467 1468 1469 1470 1471 1472 1472 1473 1474 1474 1474 1475 1475 1475 1475 1475 1474 1474 1473 1473 1472 1470 1469 1468 1468 1467 1465 1464 1463 1462 1460 1459 1458 1456 1454 1453 1452 1450 1448 1446
1463 1464 1465 1466 1467 1468 1469 1469 1470 1471 1472 1472 1473 1473 1473 1474 1474 1474 1474 1473 1473 1472 1472 1471 1470 1469 1467 1467 1466 1465 1464 1463 1461 1460 1458 1457 1456 1453 1452 1451 1449 1447 1446 1444
1463 1464 1465 1466 1466 1467 1468 1468 1469 1470 1471 1471 1472 1472 1473 1473 1473 1473 1472 1472 1471 1471 1470 1469 1468 1467 1466 1465 1464 1463 1462 1461 1459 1458 1456 1455 1453 1451 1450 1448 1446 1445 1443 1441
1463 1464 1465 1466 1466 1467 1467 1467 1468 1469 1469 1470 1471 1471 1471 1472 1472 1471 1471 1470 1470 1469 1468 1467 1467 1466 1464 1463 1462 1461 1460 1458 1457 1455 1454 1452 1450 1449 1447 1445 1443 1442 1440 1439
1464 1464 1465 1466 1466 1466 1466 1466 1467 1468 1468 1468 1469 1470 1470 1470 1470 1470 1470 1469 1468 1468 1467 1466 1465 1463 1462 1461 1460 1459 1458 1456 1455 1453 1451 1449 1448 1446 1444 1442 1441 1440 1438 1437